When you browse on this site, cookies collect data to enhance your experience and personalize the content and advertising you see.
Visit our Privacy Policy to learn more. By continuing to use the site, you agree to this use of cookies and data.
  • en France
  • Liste des pays
  • À 7 jours
  • Température de l'eau
  • Carte météo
  • Widgets météo
  • user-avatar
    Se connecter

    Météo par heure à Kluczowa

    Ce jour, 21 Février, Vendredi

    Heure Température Précipitation Vent Pression Humidité
    00:00 0°C° 0 mm 5 m/s 753 mmHg 75%
    01:00 0°C° 0 mm 5 m/s 753 mmHg 75%
    02:00 -1°C° 0 mm 6 m/s 752 mmHg 75%
    03:00 -1°C° 0 mm 6 m/s 751 mmHg 74%
    04:00 +1°C° 0 mm 6 m/s 750 mmHg 74%
    05:00 +1°C° 0 mm 6 m/s 750 mmHg 78%
    06:00 +1°C° 0 mm 6 m/s 749 mmHg 81%
    07:00 +1°C° 0 mm 6 m/s 748 mmHg 79%
    14:00 +3°C° 0.1 mm 7 m/s 752 mmHg 77%
    15:00 +3°C° 0.1 mm 6 m/s 753 mmHg 70%
    16:00 +4°C° 0.1 mm 6 m/s 754 mmHg 62%
    17:00 +3°C° 0 mm 5 m/s 754 mmHg 67%
    18:00 +3°C° 0 mm 4 m/s 755 mmHg 71%
    19:00 +3°C° 0 mm 4 m/s 756 mmHg 76%
    20:00 +1°C° 0 mm 4 m/s 757 mmHg 79%
    21:00 +1°C° 0 mm 4 m/s 757 mmHg 82%
    22:00 +1°C° 0 mm 3 m/s 757 mmHg 85%
    23:00 +1°C° 0 mm 3 m/s 758 mmHg 86%

    Demain, 22 Février, Samedi

    Heure Température Précipitation Vent Pression Humidité
    00:00 +1°C° 0 mm 3 m/s 758 mmHg 88%
    01:00 +1°C° 0 mm 3 m/s 758 mmHg 89%
    02:00 +1°C° 0 mm 3 m/s 758 mmHg 89%
    03:00 0°C° 0 mm 3 m/s 758 mmHg 90%
    04:00 0°C° 0 mm 3 m/s 758 mmHg 91%
    05:00 -1°C° 0 mm 4 m/s 757 mmHg 89%
    06:00 -1°C° 0 mm 4 m/s 757 mmHg 88%
    07:00 -1°C° 0 mm 5 m/s 757 mmHg 87%
    08:00 -1°C° 0 mm 6 m/s 756 mmHg 80%
    09:00 +2°C° 0 mm 6 m/s 756 mmHg 74%
    10:00 +3°C° 0 mm 7 m/s 755 mmHg 67%
    11:00 +4°C° 0 mm 8 m/s 754 mmHg 64%
    12:00 +4°C° 0 mm 8 m/s 753 mmHg 61%
    13:00 +5°C° 0 mm 9 m/s 752 mmHg 57%
    14:00 +5°C° 0 mm 8 m/s 751 mmHg 57%
    15:00 +6°C° 0 mm 8 m/s 750 mmHg 56%
    16:00 +6°C° 0 mm 8 m/s 749 mmHg 55%
    17:00 +6°C° 0 mm 8 m/s 749 mmHg 54%
    18:00 +6°C° 0 mm 8 m/s 749 mmHg 53%
    19:00 +7°C° 0 mm 8 m/s 748 mmHg 52%
    20:00 +7°C° 0 mm 8 m/s 748 mmHg 55%
    21:00 +6°C° 0 mm 8 m/s 748 mmHg 58%
    22:00 +6°C° 0 mm 8 m/s 747 mmHg 61%
    23:00 +6°C° 0.5 mm 8 m/s 747 mmHg 63%

    Après-demain, 23 Février, Dimanche

    Heure Température Précipitation Vent Pression Humidité
    00:00 +5°C° 0.5 mm 8 m/s 748 mmHg 65%
    01:00 +4°C° 0.5 mm 8 m/s 748 mmHg 66%
    02:00 +4°C° 0.1 mm 8 m/s 748 mmHg 68%
    03:00 +2°C° 0.1 mm 8 m/s 748 mmHg 69%
    04:00 +2°C° 0.1 mm 8 m/s 748 mmHg 70%
    05:00 +1°C° 0 mm 8 m/s 748 mmHg 71%
    06:00 +2°C° 0 mm 7 m/s 749 mmHg 72%
    07:00 0°C° 0 mm 7 m/s 749 mmHg 74%
    08:00 0°C° 0.1 mm 8 m/s 749 mmHg 72%
    09:00 +1°C° 0.1 mm 8 m/s 749 mmHg 71%
    10:00 +1°C° 0.1 mm 8 m/s 749 mmHg 69%
    11:00 +2°C° 0 mm 8 m/s 749 mmHg 64%
    12:00 +2°C° 0 mm 8 m/s 749 mmHg 59%
    13:00 +4°C° 0 mm 8 m/s 749 mmHg 54%
    14:00 +2°C° 0 mm 8 m/s 748 mmHg 59%
    15:00 +3°C° 0 mm 7 m/s 747 mmHg 63%
    16:00 +3°C° 0 mm 6 m/s 746 mmHg 68%
    17:00 +2°C° 0.3 mm 5 m/s 745 mmHg 77%
    18:00 +1°C° 0.3 mm 5 m/s 744 mmHg 86%
    19:00 +1°C° 0.3 mm 4 m/s 743 mmHg 94%
    20:00 +2°C° 1.7 mm 3 m/s 741 mmHg 95%
    21:00 +2°C° 1.7 mm 3 m/s 739 mmHg 96%
    22:00 +3°C° 1.7 mm 2 m/s 737 mmHg 96%
    23:00 0°C° 1.5 mm 4 m/s 737 mmHg 96%

    24 Février, Lundi

    Heure Température Précipitation Vent Pression Humidité
    00:00 0°C° 1.5 mm 5 m/s 738 mmHg 96%
    01:00 -1°C° 1.5 mm 6 m/s 738 mmHg 95%
    02:00 -1°C° 0.5 mm 7 m/s 740 mmHg 91%
    03:00 -1°C° 0.5 mm 8 m/s 742 mmHg 87%
    04:00 -1°C° 0.5 mm 8 m/s 743 mmHg 83%
    05:00 -1°C° 0 mm 8 m/s 745 mmHg 83%
    06:00 -1°C° 0 mm 9 m/s 746 mmHg 83%
    07:00 0°C° 0 mm 9 m/s 747 mmHg 83%
    08:00 0°C° 0.1 mm 8 m/s 748 mmHg 80%
    09:00 +1°C° 0.1 mm 8 m/s 749 mmHg 77%
    10:00 +2°C° 0.1 mm 7 m/s 750 mmHg 73%
    11:00 +3°C° 0.1 mm 7 m/s 751 mmHg 70%
    12:00 +3°C° 0.1 mm 7 m/s 752 mmHg 67%
    13:00 +4°C° 0.1 mm 6 m/s 752 mmHg 64%
    14:00 +4°C° 0 mm 6 m/s 753 mmHg 64%
    15:00 +5°C° 0 mm 5 m/s 753 mmHg 64%
    16:00 +5°C° 0 mm 4 m/s 753 mmHg 63%
    17:00 +4°C° 0 mm 4 m/s 753 mmHg 67%
    18:00 +3°C° 0 mm 4 m/s 753 mmHg 71%
    19:00 +1°C° 0 mm 4 m/s 753 mmHg 75%
    20:00 +1°C° 0 mm 4 m/s 753 mmHg 76%
    21:00 +1°C° 0 mm 4 m/s 753 mmHg 77%
    22:00 +2°C° 0 mm 3 m/s 752 mmHg 78%
    23:00 +1°C° 0 mm 4 m/s 751 mmHg 77%

    25 Février, Mardi

    Heure Température Précipitation Vent Pression Humidité
    00:00 +1°C° 0 mm 5 m/s 750 mmHg 76%
    01:00 +1°C° 0 mm 5 m/s 749 mmHg 75%
    02:00 +1°C° 0.2 mm 6 m/s 748 mmHg 78%
    03:00 +1°C° 0.2 mm 6 m/s 747 mmHg 81%
    04:00 +1°C° 0.2 mm 6 m/s 746 mmHg 84%
    05:00 +2°C° 0.3 mm 6 m/s 745 mmHg 84%
    06:00 +3°C° 0.3 mm 6 m/s 744 mmHg 83%
    07:00 +4°C° 0.3 mm 7 m/s 744 mmHg 83%
    08:00 +4°C° 0.1 mm 6 m/s 743 mmHg 82%
    09:00 +5°C° 0.1 mm 6 m/s 743 mmHg 81%
    10:00 +7°C° 0.1 mm 6 m/s 743 mmHg 80%
    11:00 +7°C° 0 mm 6 m/s 742 mmHg 78%
    12:00 +8°C° 0 mm 6 m/s 742 mmHg 75%
    13:00 +8°C° 0 mm 7 m/s 742 mmHg 73%
    14:00 +8°C° 0.1 mm 6 m/s 742 mmHg 74%
    15:00 +8°C° 0.1 mm 5 m/s 741 mmHg 75%
    16:00 +8°C° 0.1 mm 5 m/s 741 mmHg 76%
    17:00 +8°C° 0.1 mm 5 m/s 741 mmHg 79%
    18:00 +7°C° 0.1 mm 5 m/s 741 mmHg 82%
    19:00 +7°C° 0.1 mm 5 m/s 740 mmHg 84%
    20:00 +6°C° 0.1 mm 4 m/s 740 mmHg 84%
    21:00 +5°C° 0.1 mm 3 m/s 740 mmHg 84%
    22:00 +5°C° 0.1 mm 3 m/s 740 mmHg 84%
    23:00 +4°C° 0 mm 3 m/s 740 mmHg 81%

    26 Février, Mercredi

    Heure Température Précipitation Vent Pression Humidité
    00:00 +4°C° 0 mm 3 m/s 740 mmHg 78%
    01:00 +3°C° 0 mm 3 m/s 739 mmHg 74%
    02:00 +3°C° 0 mm 3 m/s 739 mmHg 74%
    03:00 +3°C° 0 mm 4 m/s 739 mmHg 74%
    04:00 +1°C° 0 mm 4 m/s 739 mmHg 74%
    05:00 +1°C° 0 mm 4 m/s 738 mmHg 76%
    06:00 +1°C° 0 mm 4 m/s 738 mmHg 77%
    07:00 0°C° 0 mm 4 m/s 738 mmHg 78%
    08:00 +2°C° 0 mm 5 m/s 738 mmHg 72%
    09:00 +3°C° 0 mm 5 m/s 737 mmHg 66%
    10:00 +4°C° 0 mm 6 m/s 737 mmHg 59%
    11:00 +4°C° 0 mm 7 m/s 736 mmHg 60%
    12:00 +4°C° 0 mm 8 m/s 736 mmHg 61%
    13:00 +3°C° 0 mm 9 m/s 735 mmHg 62%
    14:00 +4°C° 0.1 mm 8 m/s 735 mmHg 58%
    15:00 +4°C° 0.1 mm 7 m/s 735 mmHg 54%
    16:00 +4°C° 0.1 mm 7 m/s 735 mmHg 50%
    17:00 +3°C° 0 mm 6 m/s 735 mmHg 54%
    18:00 +2°C° 0 mm 5 m/s 735 mmHg 58%
    19:00 +1°C° 0 mm 4 m/s 736 mmHg 62%
    20:00 +1°C° 0 mm 4 m/s 736 mmHg 64%
    21:00 +1°C° 0 mm 4 m/s 736 mmHg 66%
    22:00 0°C° 0 mm 4 m/s 737 mmHg 69%
    23:00 0°C° 0 mm 4 m/s 737 mmHg 76%
    Voir plus